Time,TemperatureF,DewpointF,PressureIn,WindDirection,WindDirectionDegrees,WindSpeedMPH,WindSpeedGustMPH,Humidity,HourlyPrecipIn,Conditions,Clouds,dailyrainin,SoftwareType,DateUTC
2013-09-18 00:13:00,76.0,71.0,29.89,WSW,238,0.0,2.0,84,0.00,,,0.00,,2013-09-18 05:13:00,
2013-09-18 00:23:00,75.0,70.0,29.90,SW,232,0.0,1.0,85,0.00,,,0.00,,2013-09-18 05:23:00,
2013-09-18 00:43:00,75.0,70.0,29.89,WSW,246,0.0,2.0,85,0.00,,,0.00,,2013-09-18 05:43:00,
2013-09-18 00:52:00,75.0,71.0,29.90,WSW,246,0.0,1.0,86,0.00,,,0.00,,2013-09-18 05:52:00,
2013-09-18 01:12:00,74.0,70.0,29.90,WSW,246,0.0,1.0,88,0.00,,,0.00,,2013-09-18 06:12:00,
2013-09-18 01:22:00,74.0,70.0,29.90,SW,226,0.0,2.0,88,0.00,,,0.00,,2013-09-18 06:22:00,
2013-09-18 01:42:00,74.0,71.0,29.90,SW,236,0.0,2.0,89,0.00,,,0.00,,2013-09-18 06:42:00,
2013-09-18 01:52:00,74.0,71.0,29.90,SW,229,0.0,2.0,89,0.00,,,0.00,,2013-09-18 06:52:00,
2013-09-18 02:12:00,73.0,70.0,29.89,SW,218,0.0,3.0,90,0.00,,,0.00,,2013-09-18 07:12:00,
2013-09-18 02:22:00,73.0,70.0,29.89,SW,232,0.0,1.0,91,0.00,,,0.00,,2013-09-18 07:22:00,
2013-09-18 02:52:00,73.0,71.0,29.88,SW,232,0.0,1.0,92,0.00,,,0.00,,2013-09-18 07:52:00,
2013-09-18 03:12:00,72.0,70.0,29.88,WSW,243,0.0,2.0,93,0.00,,,0.00,,2013-09-18 08:12:00,
2013-09-18 03:22:00,72.0,70.0,29.87,SW,232,0.0,1.0,93,0.00,,,0.00,,2013-09-18 08:22:00,
2013-09-18 03:52:00,72.0,70.0,29.87,SW,234,0.0,1.0,94,0.00,,,0.00,,2013-09-18 08:52:00,
2013-09-18 04:12:00,72.0,70.0,29.86,SW,229,0.0,2.0,94,0.00,,,0.00,,2013-09-18 09:12:00,
2013-09-18 04:22:00,72.0,70.0,29.86,SW,232,0.0,2.0,95,0.00,,,0.00,,2013-09-18 09:22:00,
2013-09-18 04:43:00,72.0,70.0,29.86,SW,217,0.0,1.0,95,0.00,,,0.00,,2013-09-18 09:43:00,
2013-09-18 04:53:00,72.0,70.0,29.85,WSW,245,0.0,2.0,95,0.00,,,0.00,,2013-09-18 09:53:00,
2013-09-18 05:13:00,72.0,70.0,29.85,SW,235,0.0,2.0,95,0.00,,,0.00,,2013-09-18 10:13:00,
2013-09-18 05:23:00,72.0,71.0,29.84,SW,232,0.0,2.0,96,0.00,,,0.00,,2013-09-18 10:23:00,
2013-09-18 05:53:00,72.0,71.0,29.84,WSW,243,1.0,3.0,97,0.00,,,0.00,,2013-09-18 10:53:00,
2013-09-18 06:12:00,72.0,71.0,29.84,SSW,198,0.0,4.0,97,0.00,,,0.00,,2013-09-18 11:12:00,
2013-09-18 06:22:00,72.0,71.0,29.84,SSW,212,0.0,3.0,97,0.00,,,0.00,,2013-09-18 11:22:00,
2013-09-18 06:42:00,72.0,71.0,29.84,SW,218,0.0,3.0,97,0.00,,,0.00,,2013-09-18 11:42:00,
2013-09-18 06:52:00,72.0,71.0,29.84,WSW,246,0.0,4.0,97,0.00,,,0.00,,2013-09-18 11:52:00,
2013-09-18 07:12:00,72.0,71.0,29.85,WSW,246,0.0,4.0,97,0.00,,,0.00,,2013-09-18 12:12:00,
2013-09-18 07:22:00,72.0,71.0,29.85,SW,232,0.0,2.0,97,0.00,,,0.00,,2013-09-18 12:22:00,
2013-09-18 07:42:00,72.0,71.0,29.85,SW,221,0.0,1.0,98,0.00,,,0.00,,2013-09-18 12:42:00,
2013-09-18 07:52:00,72.0,71.0,29.86,SSW,198,0.0,2.0,98,0.00,,,0.00,,2013-09-18 12:52:00,
2013-09-18 08:11:00,72.0,71.0,29.86,SSW,195,0.0,2.0,98,0.00,,,0.00,,2013-09-18 13:11:00,
2013-09-18 23:01:00,76.0,69.0,29.83,WSW,246,2.0,6.0,79,0.00,,,0.00,,2013-09-19 04:01:00,
2013-09-18 23:25:00,76.0,70.0,29.83,WSW,255,1.0,5.0,81,0.00,,,0.00,,2013-09-19 04:25:00,
2013-09-18 23:44:00,76.0,70.0,29.83,SW,232,2.0,6.0,82,0.00,,,0.00,,2013-09-19 04:44:00,
2013-09-18 23:54:00,76.0,70.0,29.83,SW,232,1.0,4.0,83,0.00,,,0.00,,2013-09-19 04:54:00,